CZ-6A DEB, 54606

Orbit data source: Space-Track

CZ-6A DEB, 54606 is space debris in SSO originally from a launch on Fri, 11 Nov 2022 UTC launched from the Taiyaun Space Center, China (TSC). Debris objects in space refer to the collection of defunct objects orbiting the Earth. Examples of debris include non-operational satellites, rocket bodies, and fragments generated from explosions, collisions, or faulty payload assembly.

Loading next visibility...
Identifier
54606, 2022-151NG
Orbit
SSO
Country
Flag of CNCN / PRC
Related business
Manufacturer
SAST
Mission
Spacecraft
Bus & Motor
Unknown
Mass
Unknown
Launch date (UTC)
2022-11-11 (4 years ago)
Launch vehicle
Unknown
Launch site
Taiyaun Space Center, China (TSC)
Object type
Payload
Rocket body
Debris
Shape & HBR
Unknown shape, 0.1 m
Radar Cross Section
Medium (>0.1 m² and <1 m²)

Expand to show TLE details & history
Last TLE update: 17 hours ago

TLE from 17 hours ago
0 CZ-6A DEB
1 54606U 22151NG  26265.05114609  .00003633  00000-0  12422-2 0  9997
2 54606  98.7907 292.7067 0057172  30.6412 329.8092 14.36006325199848
Epoch: 2026-09-22T01:13Z
TLE epoch observation values (Epoch: 2026-09-22T01:13:39.022Z)
Latitude
0.00004°
Longitude
-86.62807°
Altitude
739.378 km
Speed
7.504 km/s
True Right ascension
19h 30m 49s
True Declination
0° 00' 00"
Sunlit
Object was in daylight at epoch
Visualization orbit readout
Latitude
Unknown
Longitude
Unknown
Altitude
Unknown
Speed
Unknown
Apparent Right ascension
Unknown
Apparent Declination
Unknown
Sunlit
N/A
Visualization observer readout
Local Sidereal Time
11:02:22
Azimuth
Unknown
Elevation
Unknown
Doppler factor
Unknown
Orbital elements
Apogee altitude
809.726 km
Perigee altitude
728.004 km
Semi-major axis
7,147.002 km
Eccentricity
0.00572
Inclination
98.7907°
RAAN
292.7067°
Arg. of periapsis
30.6412°
True anomaly
329.4777°
Mean anomaly
329.8092°
Eccentric anomaly
329.64365°
Mean motion
3.59217 °/min
Orbital period
100.22 mins
BSTAR
0.0012422
Loading maneuver chart data...
Computing Atmospheric mass density...
Loading historical data...
Loading historical data...
Loading historical data...
Loading historical data...
Loading historical data...
Loading historical data...
Loading historical data...

Documentation

Showing up to 5 results
|